TimeEDT,TemperatureF,Dew PointF,Humidity,Sea Level PressureIn,VisibilityMPH,Wind Direction,Wind SpeedMPH,Gust SpeedMPH,PrecipitationIn,Events,Conditions,WindDirDegrees,DateUTC
12:14 AM,69.8,62.6,78,30.14,10.0,NE,3.5,-,N/A,,Clear,50,2013-07-13 04:14:00
12:34 AM,69.8,62.6,78,30.14,10.0,NE,4.6,-,N/A,,Clear,50,2013-07-13 04:34:00
12:54 AM,69.8,62.6,78,30.14,10.0,NNE,5.8,-,N/A,,Clear,30,2013-07-13 04:54:00
1:14 AM,68.0,62.6,83,30.13,10.0,NNE,5.8,-,N/A,,Clear,30,2013-07-13 05:14:00
1:34 AM,68.0,62.6,83,30.13,10.0,NE,4.6,-,N/A,,Clear,40,2013-07-13 05:34:00
1:54 AM,68.0,62.6,83,30.14,10.0,NE,6.9,-,N/A,,Clear,50,2013-07-13 05:54:00
2:14 AM,68.0,62.6,83,30.14,10.0,NE,6.9,-,N/A,,Clear,50,2013-07-13 06:14:00
2:34 AM,69.8,62.6,78,30.14,10.0,NNE,5.8,-,N/A,,Clear,20,2013-07-13 06:34:00
2:54 AM,68.0,62.6,83,30.14,10.0,NE,5.8,-,N/A,,Clear,40,2013-07-13 06:54:00
3:14 AM,68.0,62.6,83,30.14,10.0,NNE,5.8,-,N/A,,Clear,30,2013-07-13 07:14:00
3:34 AM,68.0,62.6,83,30.14,10.0,NNE,5.8,-,N/A,,Clear,30,2013-07-13 07:34:00
3:54 AM,68.0,62.6,83,30.14,10.0,NNE,6.9,-,N/A,,Clear,30,2013-07-13 07:54:00
4:15 AM,66.2,62.6,88,30.14,10.0,NE,6.9,-,N/A,,Clear,40,2013-07-13 08:15:00
4:34 AM,66.2,62.6,88,30.14,10.0,ENE,8.1,-,N/A,,Clear,60,2013-07-13 08:34:00
4:54 AM,66.2,62.6,88,30.15,10.0,NE,6.9,-,N/A,,Clear,40,2013-07-13 08:54:00
5:14 AM,66.2,62.6,88,30.15,10.0,North,5.8,-,N/A,,Clear,10,2013-07-13 09:14:00
5:34 AM,66.2,62.6,88,30.15,10.0,NE,5.8,-,N/A,,Clear,40,2013-07-13 09:34:00
5:55 AM,66.2,62.6,88,30.16,10.0,NE,4.6,-,N/A,,Clear,40,2013-07-13 09:55:00
6:14 AM,66.2,62.6,88,30.17,10.0,NNE,4.6,-,N/A,,Clear,30,2013-07-13 10:14:00
6:34 AM,66.2,62.6,88,30.17,10.0,ENE,4.6,-,N/A,,Clear,70,2013-07-13 10:34:00
6:55 AM,66.2,64.4,94,30.17,10.0,NNE,5.8,-,N/A,,Clear,20,2013-07-13 10:55:00
7:14 AM,66.2,64.4,94,30.18,10.0,NNE,5.8,-,N/A,,Clear,30,2013-07-13 11:14:00
7:34 AM,68.0,64.4,88,30.18,10.0,NE,6.9,-,N/A,,Clear,40,2013-07-13 11:34:00
7:54 AM,69.8,64.4,83,30.18,10.0,NE,8.1,-,N/A,,Clear,50,2013-07-13 11:54:00
8:14 AM,69.8,64.4,83,30.18,10.0,ENE,8.1,-,N/A,,Clear,60,2013-07-13 12:14:00
8:34 AM,71.6,66.2,83,30.19,10.0,ENE,5.8,-,N/A,,Clear,70,2013-07-13 12:34:00
8:54 AM,71.6,66.2,83,30.19,10.0,ENE,5.8,-,N/A,,Clear,60,2013-07-13 12:54:00
9:14 AM,73.4,66.2,78,30.19,10.0,ENE,6.9,-,N/A,,Clear,60,2013-07-13 13:14:00
9:34 AM,73.4,66.2,78,30.19,10.0,ENE,6.9,-,N/A,,Clear,70,2013-07-13 13:34:00
9:54 AM,73.4,66.2,78,30.19,10.0,ENE,6.9,-,N/A,,Clear,60,2013-07-13 13:54:00
10:14 AM,75.2,64.4,69,30.19,10.0,East,6.9,-,N/A,,Clear,90,2013-07-13 14:14:00
10:34 AM,75.2,66.2,73,30.19,10.0,NE,4.6,-,N/A,,Clear,50,2013-07-13 14:34:00
10:54 AM,75.2,64.4,69,30.19,10.0,ENE,8.1,-,N/A,,Clear,70,2013-07-13 14:54:00
11:14 AM,75.2,64.4,69,30.19,10.0,ENE,4.6,-,N/A,,Scattered Clouds,70,2013-07-13 15:14:00
11:34 AM,75.2,64.4,69,30.19,10.0,NE,4.6,-,N/A,,Scattered Clouds,40,2013-07-13 15:34:00
11:54 AM,75.2,64.4,69,30.19,10.0,East,3.5,-,N/A,,Scattered Clouds,80,2013-07-13 15:54:00
12:14 PM,77.0,66.2,69,30.19,10.0,ESE,5.8,-,N/A,,Scattered Clouds,110,2013-07-13 16:14:00
12:35 PM,77.0,69.8,78,30.19,10.0,South,10.4,-,N/A,,Scattered Clouds,180,2013-07-13 16:35:00
12:54 PM,75.2,69.8,83,30.20,10.0,South,9.2,-,N/A,,Scattered Clouds,180,2013-07-13 16:54:00
1:14 PM,75.2,69.8,83,30.20,10.0,South,8.1,-,N/A,,Mostly Cloudy,190,2013-07-13 17:14:00
1:35 PM,75.2,69.8,83,30.19,10.0,South,8.1,-,N/A,,Mostly Cloudy,190,2013-07-13 17:35:00
1:54 PM,75.2,69.8,83,30.20,10.0,South,6.9,-,N/A,,Mostly Cloudy,180,2013-07-13 17:54:00
2:14 PM,75.2,69.8,83,30.20,10.0,South,8.1,-,N/A,,Mostly Cloudy,190,2013-07-13 18:14:00
2:34 PM,77.0,69.8,78,30.19,10.0,SSE,5.8,-,N/A,,Mostly Cloudy,160,2013-07-13 18:34:00
2:54 PM,78.8,69.8,74,30.19,10.0,South,6.9,-,N/A,,Mostly Cloudy,170,2013-07-13 18:54:00
3:14 PM,78.8,69.8,74,30.19,10.0,South,3.5,-,N/A,,Mostly Cloudy,180,2013-07-13 19:14:00
3:34 PM,80.6,66.2,61,30.19,10.0,NE,6.9,-,N/A,,Mostly Cloudy,50,2013-07-13 19:34:00
3:54 PM,80.6,66.2,61,30.18,10.0,East,5.8,-,N/A,,Mostly Cloudy,80,2013-07-13 19:54:00
4:14 PM,80.6,69.8,70,30.18,10.0,South,5.8,-,N/A,,Mostly Cloudy,170,2013-07-13 20:14:00
4:34 PM,78.8,69.8,74,30.17,10.0,SSE,6.9,-,N/A,,Mostly Cloudy,150,2013-07-13 20:34:00
4:54 PM,78.8,69.8,74,30.17,10.0,South,4.6,-,N/A,,Scattered Clouds,170,2013-07-13 20:54:00
5:14 PM,78.8,69.8,74,30.17,10.0,South,5.8,-,N/A,,Clear,170,2013-07-13 21:14:00
5:34 PM,78.8,69.8,74,30.17,10.0,SSE,9.2,-,N/A,,Clear,160,2013-07-13 21:34:00
5:54 PM,78.8,69.8,74,30.18,10.0,SSE,9.2,-,N/A,,Clear,160,2013-07-13 21:54:00
6:14 PM,78.8,69.8,74,30.17,10.0,SSE,5.8,-,N/A,,Clear,150,2013-07-13 22:14:00
6:34 PM,78.8,68.0,69,30.17,10.0,SSE,4.6,-,N/A,,Clear,150,2013-07-13 22:34:00
6:54 PM,80.6,68.0,65,30.17,10.0,Calm,Calm,-,N/A,,Clear,0,2013-07-13 22:54:00
7:14 PM,80.6,64.4,58,30.17,10.0,East,3.5,-,N/A,,Clear,80,2013-07-13 23:14:00
7:34 PM,80.6,64.4,58,30.17,10.0,East,4.6,-,N/A,,Clear,90,2013-07-13 23:34:00
7:54 PM,80.6,64.4,58,30.18,10.0,ESE,4.6,-,N/A,,Clear,120,2013-07-13 23:54:00
8:14 PM,78.8,64.4,61,30.18,10.0,East,5.8,-,N/A,,Clear,100,2013-07-14 00:14:00
8:34 PM,77.0,66.2,69,30.18,10.0,ESE,5.8,-,N/A,,Clear,120,2013-07-14 00:34:00
8:54 PM,75.2,66.2,73,30.18,10.0,ESE,4.6,-,N/A,,Clear,120,2013-07-14 00:54:00
9:14 PM,75.2,66.2,73,30.19,10.0,ESE,4.6,-,N/A,,Clear,120,2013-07-14 01:14:00
9:35 PM,73.4,66.2,78,30.19,10.0,ESE,4.6,-,N/A,,Clear,110,2013-07-14 01:35:00
9:54 PM,73.4,66.2,78,30.20,10.0,Calm,Calm,-,N/A,,Clear,0,2013-07-14 01:54:00
10:14 PM,73.4,66.2,78,30.21,10.0,ENE,3.5,-,N/A,,Clear,70,2013-07-14 02:14:00
10:35 PM,73.4,64.4,73,30.21,10.0,East,3.5,-,N/A,,Clear,90,2013-07-14 02:35:00
10:54 PM,73.4,64.4,73,30.21,10.0,NE,3.5,-,N/A,,Clear,50,2013-07-14 02:54:00
11:14 PM,71.6,64.4,78,30.21,10.0,ENE,3.5,-,N/A,,Clear,70,2013-07-14 03:14:00
11:34 PM,71.6,64.4,78,30.21,10.0,Calm,Calm,-,N/A,,Clear,0,2013-07-14 03:34:00
11:54 PM,71.6,64.4,78,30.21,10.0,Calm,Calm,-,N/A,,Clear,0,2013-07-14 03:54:00